GSAT0103 (GALILEO-FM3)

Last updated on Wed Oct 09 2024 00:02:27 GMT+0000 (Coordinated Universal Time)

1 38857U 12055A 24281.80043375 .00000059 00000+0 00000+0 0 9993 2 38857 55.4567 118.5090 0002013 266.1422 93.9099 1.70473690 74487
UTC large
Height (km)
Speed (km/s)
/
Latitude / Longitude
Inclination (degrees)
Orbital Period (minutes)
Azimuth
Elevation
Range (km)
Doppler Factor

Next 0 passes for location: London (51.5072 / 0.1276)

Sorry there are no passes over London.